Simultaneous Nadir Overpasses (SNOs) Predictions

Prediction of SNOs between GOES-15 and NOAA-20 Satellite Orbit:

Table of predicted SNOs for the next 14.0 days since TLE Epoch: 9/21/2024
Index Date Time (GOES-15) GOES-15 Lat,Lon NOAA-20 Lat,Lon Distance(km) Time Diff (sec)
1 09/22/2024 09:31:54 -0.32, 61.29 -1.11, 57.82 395.90 80
2 09/23/2024 09:15:46 -0.33, 61.29 -0.11, 62.37 122.36 80
3 09/24/2024 21:37:30 0.30, 61.32 1.28, 57.11 480.86 80
4 09/25/2024 21:16:04 0.31, 61.32 0.21, 61.64 36.41 80
5 09/28/2024 09:19:09 -0.30, 61.29 -0.36, 60.88 45.79 80
6 09/29/2024 09:03:00 -0.30, 61.29 0.60, 65.44 472.52 80
7 09/30/2024 21:24:45 0.28, 61.31 0.55, 60.17 129.96 80
8 10/01/2024 21:03:17 0.29, 61.32 -0.47, 64.72 387.39 80
9 10/03/2024 09:25:08 -0.27, 61.30 -0.72, 59.43 213.46 80
10 10/04/2024 09:09:01 -0.28, 61.29 0.31, 63.97 304.61 80
